STARLINK-32314, 61709

Orbit data source: Space-Track

STARLINK-32314, 61709 is a payload satellite owned by SpaceX/Seattle (US) in LEO that was launched on Wed, 30 Oct 2024 UTC via an FALCON 9 launch vehicle from the Air Force Eastern Test Range (AFETR). Payload-class satellites include a variety of spacecraft equipped with specific instruments for various scientific and technological missions. These include communications satellites like Starlink; space stations such as the ISS; scientific satellites like the Hubble; Earth observation satellites from companies like Planet Labs, Umbra, and HawkEye 360; GPS; miniature CubeSats for education and research; and military/defense satellites.

Loading next visibility...
Identifier
61709, 2024-196C
Orbit
LEO
Country
Flag of USUS
Related business
Manufacturer
SpaceX/Seattle
Mission
Operational Commercial Communications
Bus & Motor
STARLINK V2M, Unknown motor
Mass
730 kg wet, ~700 kg dry
Launch date (UTC)
2024-10-30 (1 year ago)
Launch vehicle
FALCON 9
Launch site
Air Force Eastern Test Range (AFETR)
Object type
Payload
Rocket body
Debris
Shape & HBR
Box + 2 Pan, 17.7 m
Radar Cross Section
33.884 m², Large (>1 m²)

Expand to show TLE details & history
Last TLE update: 9 hours ago

TLE from 9 hours ago
0 STARLINK-32314
1 61709U 24196C   25311.25400722 -.00001545  00000-0 -40071-4 0  9992
2 61709  53.1614 309.8603 0001137 111.8130 248.2991 15.30184801 58415
Epoch: 2025-11-07T06:05Z
TLE epoch observation values (Epoch: 2025-11-07T06:05:46.223Z)
Latitude
-0.0001°
Longitude
171.71701°
Altitude
476.449 km
Speed
7.629 km/s
True Right ascension
20h 39m 26s
True Declination
0° 00' 00"
Sunlit
Object was in daylight at epoch
Visualization orbit readout
Latitude
Unknown
Longitude
Unknown
Altitude
Unknown
Speed
Unknown
Apparent Right ascension
Unknown
Apparent Declination
Unknown
Sunlit
N/A
Visualization observer readout
Local Sidereal Time
11:14:42
Azimuth
Unknown
Elevation
Unknown
Doppler factor
Unknown
Orbital elements
Apogee altitude
476.296 km
Perigee altitude
474.737 km
Semi-major axis
6,853.654 km
Eccentricity
0.00011
Inclination
53.1614°
RAAN
309.8603°
Arg. of periapsis
111.813°
True anomaly
248.28699°
Mean anomaly
248.2991°
Eccentric anomaly
248.29305°
Mean motion
3.82525 °/min
Orbital period
94.11 mins
BSTAR
-0.000040071
Loading maneuver chart data...
Computing Atmospheric mass density...
Loading historical data...
Loading historical data...
Loading historical data...
Loading historical data...
Loading historical data...
Loading historical data...
Loading historical data...

Documentation

Showing up to 5 results
|